Wind_Speed
47 44 42 45 51 54 53 52 49 48 48 46 44 43 42 41 41 44 46 45 46 35 31 38 34 30 35 37 41 43 44 47 50 51 48 47 49 50 50 48 45 42 41 42 40 39 40 39 39 39 39 39 39 39 40 42 44 46 51 55 59 59 58 58 58 58 58 59 59 59 59 59 59 58 59 60 61 61 61 61 62 63 63 63 64 64
48 45 45 50 54 54 53 53 53 52 52 50 48 46 45 45 44 46 47 46 47 37 31 38 33 28 34 36 39 43 43 44 48 51 51 48 47 48 51 51 49 46 45 45 43 42 42 41 41 40 40 41 41 41 41 42 42 43 44 49 54 57 59 61 60 60 60 61 61 61 61 61 60 61 61 62 62 62 62 62 62 63 63 63 64 64
48 46 47 53 54 54 54 54 55 54 53 52 52 51 48 50 49 45 47 48 47 41 35 36 31 24 29 35 38 43 44 45 46 48 51 50 48 48 50 52 51 50 50 48 46 46 44 42 42 42 42 42 42 42 42 42 42 43 44 44 46 50 55 59 60 61 61 62 62 62 63 63 62 62 62 62 62 62 62 62 61 62 62 62 63 63
48 48 51 54 55 55 55 56 57 56 55 53 53 54 51 54 54 47 47 50 48 45 41 40 33 24 28 35 39 44 46 47 47 46 47 50 51 51 51 52 51 51 52 51 49 48 46 44 44 44 44 44 44 44 44 44 43 44 45 45 45 46 49 52 54 56 57 58 59 60 61 60 60 61 61 61 61 61 60 59 59 59 59 59 60 60
50 52 55 57 58 57 56 56 59 59 56 54 54 56 55 57 58 51 48 50 49 47 46 45 37 26 30 35 37 45 48 47 47 44 44 47 51 54 53 53 53 53 54 54 53 52 49 48 47 47 47 48 47 47 47 46 45 45 46 46 47 47 47 49 50 51 52 53 54 54 55 56 56 56 56 56 56 56 55 55 55 56 56 56 57 57
52 58 60 59 59 59 59 58 62 64 59 53 55 59 60 59 59 56 55 53 48 46 48 49 42 32 30 32 35 45 48 46 46 44 45 48 50 52 53 54 55 55 55 56 56 56 55 53 52 51 52 51 51 51 50 49 49 48 47 48 48 48 50 50 51 51 51 51 51 51 52 52 53 53 53 53 53 52 52 53 53 54 54 55 56 57
56 63 65 63 61 61 61 61 65 69 63 55 57 63 64 62 61 59 60 58 52 49 50 51 50 42 35 35 40 46 48 47 47 48 50 53 53 53 51 53 56 55 54 56 56 58 59 58 57 57 57 56 55 54 53 53 52 51 51 51 51 51 52 53 53 53 53 53 53 53 53 54 54 54 55 54 52 52 53 53 54 55 56 57 58 59
61 65 66 66 65 63 63 65 69 71 67 61 62 66 67 66 66 63 62 62 58 55 52 53 55 53 45 41 46 49 49 48 48 50 54 55 55 56 53 52 55 56 56 55 53 54 56 57 58 60 60 59 58 56 55 55 55 55 55 55 55 55 55 54 54 54 55 55 55 56 56 57 57 58 57 55 54 54 55 56 57 58 59 60 61 61
65 65 64 66 66 66 68 70 72 73 71 67 68 69 69 70 70 69 67 65 63 59 53 53 56 59 52 45 48 50 48 49 48 49 54 54 53 56 56 54 55 58 58 56 54 53 55 56 56 58 59 59 59 58 58 58 58 57 58 59 59 58 57 56 56 56 57 57 57 57 58 59 59 59 59 58 58 58 59 60 60 61 62 63 63 63
68 66 64 65 66 69 71 73 74 75 75 73 74 73 73 74 72 73 72 70 70 64 55 54 59 63 58 49 47 47 47 50 50 49 52 52 52 54 56 55 56 58 58 57 57 57 57 57 57 58 57 58 59 60 60 61 61 61 61 62 62 61 59 59 60 60 61 61 60 60 60 61 61 61 62 62 62 63 63 63 63 63 64 64 65 65
72 70 68 68 68 70 71 73 74 76 77 77 77 76 77 77 76 77 76 75 77 69 60 62 66 69 64 54 52 52 51 52 52 53 54 51 50 51 55 55 55 56 56 56 59 61 62 61 60 60 59 59 60 60 62 63 64 64 64 64 64 63 63 63 63 64 64 64 65 65 65 65 64 64 65 65 66 66 65 64 64 64 64 64 64 65
75 74 74 74 75 76 76 77 76 76 79 79 79 79 80 80 79 80 79 81 83 76 69 72 76 77 68 56 56 61 61 59 57 58 59 56 52 50 53 55 55 56 56 57 60 63 65 65 64 64 63 62 62 62 62 64 66 66 66 66 66 67 67 67 66 66 67 68 69 69 68 68 67 66 67 67 68 67 67 66 65 65 65 65 65 65
78 77 79 79 79 80 82 82 81 81 83 83 83 84 85 86 86 86 87 90 92 85 79 82 85 82 69 58 61 63 64 65 62 60 60 59 58 55 55 57 57 58 60 60 61 63 66 67 67 68 67 67 65 64 63 65 66 67 68 69 69 70 72 71 70 70 70 71 72 72 72 71 71 71 71 71 70 70 69 68 67 68 68 68 67 67
81 79 81 83 83 84 85 86 88 89 89 90 90 92 95 97 97 98 99 100 97 91 88 91 91 84 71 66 68 68 67 69 69 68 64 61 60 61 61 62 63 64 66 67 67 69 72 72 71 71 71 71 70 68 67 67 68 69 70 70 70 71 73 74 74 73 73 74 74 74 74 74 74 75 75 74 73 73 72 71 71 71 71 70 70 71
88 84 82 86 88 86 86 90 93 94 94 94 94 97 100 101 102 104 108 108 104 100 99 99 99 93 84 79 79 77 76 77 79 81 79 73 69 66 65 66 69 71 73 75 76 77 80 80 78 75 74 74 73 73 72 71 72 72 73 72 72 72 72 73 74 74 74 74 74 74 75 76 76 77 77 76 76 75 75 74 74 74 73 73 74 76
96 92 88 90 92 91 91 95 97 99 100 100 103 106 106 107 109 112 114 114 111 111 110 107 105 101 97 94 92 90 88 88 90 92 91 89 86 81 75 72 73 75 77 80 81 83 84 84 84 81 78 77 77 77 76 76 76 76 76 76 76 76 76 76 75 75 74 74 74 74 75 76 77 77 78 78 78 77 77 76 75 76 77 77 78 79
102 99 95 95 97 97 97 100 101 102 104 106 108 110 109 112 116 117 119 118 117 119 119 115 111 108 106 103 100 97 96 96 98 99 99 98 95 92 89 85 82 81 83 85 87 88 88 87 87 86 84 83 82 82 81 80 79 78 78 78 78 79 79 79 79 78 77 77 77 77 77 77 78 78 78 78 79 79 78 78 77 78 79 81 82 83
109 107 103 101 102 102 102 103 105 107 110 113 114 114 114 117 118 119 121 122 123 124 122 118 115 112 110 107 102 99 100 101 103 104 104 103 100 98 98 98 95 93 94 94 94 95 94 92 91 91 90 89 89 89 88 86 84 83 82 81 81 81 81 81 82 82 82 82 81 80 79 79 79 79 80 80 81 81 80 80 81 81 82 84 86 86
115 114 110 106 105 108 110 110 111 113 117 121 123 123 122 122 122 122 124 126 127 128 126 124 122 119 114 108 103 101 103 105 107 108 107 106 105 104 105 107 107 106 106 105 104 104 103 101 100 99 98 97 97 98 96 93 90 89 88 86 87 88 87 87 87 88 88 88 87 86 84 84 83 83 84 84 85 85 85 86 86 86 87 88 89 89
120 122 119 115 113 117 120 120 120 121 124 127 128 127 126 126 125 126 128 131 132 132 133 133 132 129 120 110 106 104 105 107 108 108 108 108 108 108 109 112 113 114 113 113 113 112 112 111 110 109 106 104 104 104 103 101 98 97 97 96 95 94 93 92 91 91 91 92 92 92 92 91 91 91 91 91 91 91 91 92 92 91 92 92 93 93
126 129 130 128 126 126 127 127 128 129 131 132 131 129 127 127 128 130 133 134 135 136 138 138 137 133 123 112 106 103 103 106 106 105 105 105 107 108 110 113 115 116 116 116 116 115 114 115 116 116 115 113 112 110 109 107 104 102 102 103 103 99 95 94 95 95 94 95 95 95 96 97 98 98 96 95 95 95 96 98 99 98 98 98 99 100
132 135 137 137 135 133 131 130 132 134 135 134 133 132 131 130 132 135 137 137 137 139 140 140 139 133 123 112 105 102 102 102 102 102 100 100 102 105 108 111 113 114 115 114 113 112 112 114 117 119 119 118 117 116 113 111 109 106 104 104 106 103 98 95 98 101 100 98 98 99 100 100 100 101 100 99 99 99 100 103 104 105 105 105 105 106
138 141 142 142 141 138 135 134 134 135 136 136 137 136 135 135 135 137 139 139 139 140 140 138 136 131 122 112 107 106 106 103 101 100 97 97 100 102 103 105 107 108 109 109 109 108 109 111 115 118 120 119 118 117 115 112 111 110 108 107 107 106 102 99 101 105 106 104 102 102 104 104 104 104 105 106 105 105 106 107 108 110 110 111 111 111
142 144 146 147 147 146 143 140 139 139 140 140 139 138 136 135 135 137 138 139 140 141 139 137 135 130 123 115 110 110 109 106 102 99 98 99 100 101 102 103 105 106 105 106 107 108 109 111 113 116 118 118 117 115 113 112 111 110 110 109 108 108 108 106 106 108 110 109 106 104 105 106 107 109 111 111 111 110 110 111 111 112 113 114 115 115
145 147 149 150 151 150 147 144 141 139 139 139 138 136 134 133 133 135 136 139 142 141 138 137 134 129 124 120 115 111 109 107 105 102 102 102 102 102 104 106 108 108 106 104 104 106 108 109 110 111 112 113 112 110 109 110 110 108 108 108 109 109 109 110 110 110 111 110 107 105 105 105 108 111 113 114 114 114 113 113 114 114 114 116 117 118
145 146 146 146 145 145 144 141 139 136 134 134 133 132 131 131 132 134 136 140 142 140 138 137 134 128 125 123 118 112 108 107 105 103 104 106 107 107 107 108 108 108 107 104 102 103 104 104 105 105 106 106 105 105 105 106 106 104 103 105 107 108 108 108 109 109 110 110 109 107 106 106 107 109 110 112 114 115 115 115 115 115 115 117 118 119
141 141 140 138 138 138 137 135 134 133 133 132 131 130 130 130 132 134 138 140 141 140 139 136 131 129 126 123 119 114 110 108 106 104 103 105 109 110 109 108 107 107 106 104 102 102 102 103 103 103 103 104 103 102 102 103 103 102 101 102 105 106 106 106 106 107 107 108 109 109 108 109 109 110 110 112 113 114 116 116 116 116 116 118 119 120
135 135 134 133 134 134 134 133 131 131 132 132 132 132 132 132 132 134 137 138 138 140 139 132 129 129 126 122 118 114 111 109 108 107 105 104 105 106 106 106 106 107 107 105 103 101 100 101 102 103 104 104 104 103 101 100 99 98 98 99 100 103 104 105 105 106 106 106 107 108 109 110 111 112 112 113 114 115 116 117 117 118 119 120 121 121
130 130 129 129 130 131 131 131 129 130 131 132 133 133 132 132 132 133 133 132 133 135 133 128 126 126 123 120 118 114 111 109 107 106 105 105 104 102 101 102 103 105 106 106 106 104 102 101 101 102 104 106 106 106 104 102 99 97 97 98 98 99 100 102 103 104 104 104 105 106 108 110 111 112 113 115 116 117 118 119 120 121 121 121 121 119
127 127 125 125 127 128 128 127 126 127 128 129 131 131 129 128 127 126 125 124 126 127 125 122 121 121 120 120 117 113 110 108 106 105 105 105 104 102 99 99 101 103 104 105 106 106 106 105 105 104 105 106 108 108 108 106 103 100 99 100 100 99 98 99 101 102 102 103 103 105 108 109 110 112 113 116 118 119 120 122 122 122 121 120 118 117
124 125 123 123 125 125 123 122 123 124 126 126 126 123 122 121 120 120 120 120 120 119 116 114 114 116 118 118 115 112 110 108 106 106 106 106 105 103 100 99 98 100 101 103 104 105 106 106 107 107 107 108 109 109 109 109 108 106 104 103 103 102 101 100 100 99 100 100 102 104 107 109 110 111 112 114 117 119 120 121 122 122 120 116 114 113
122 123 122 122 123 121 116 116 119 121 124 123 118 113 113 115 116 116 116 116 115 114 111 110 110 111 112 112 112 112 111 110 108 107 106 106 104 102 100 98 98 97 98 100 101 103 103 104 105 106 107 108 109 110 109 109 109 109 108 107 106 106 107 106 104 102 100 100 100 101 103 104 106 107 108 111 114 116 118 119 120 119 117 113 111 109
121 122 122 123 123 118 111 111 115 119 121 114 107 106 110 114 114 112 111 111 112 112 111 110 110 109 109 110 110 110 110 109 108 106 105 104 103 101 99 97 97 97 97 97 98 99 100 102 103 104 105 106 107 108 108 109 110 110 111 110 109 109 110 112 112 110 107 104 102 100 98 99 100 101 103 104 105 107 109 110 112 112 111 110 109 108
119 120 121 122 123 119 111 110 115 118 114 105 103 108 113 113 112 110 109 109 110 111 112 112 112 111 111 111 110 108 107 106 106 104 104 103 102 100 98 96 95 95 95 95 94 95 96 98 100 102 104 105 106 107 107 107 109 110 111 111 111 111 112 114 117 117 115 112 108 104 101 99 98 98 97 98 98 100 102 103 104 106 106 107 108 109
118 119 120 121 123 121 115 113 116 114 107 104 108 111 111 111 111 111 110 110 110 111 113 114 114 114 113 112 111 109 107 105 103 102 102 103 102 100 98 97 95 95 94 93 92 91 92 94 96 98 100 103 105 106 107 107 108 108 109 110 111 111 113 115 118 119 118 117 115 112 109 106 103 102 101 101 103 104 105 104 105 106 107 107 109 111
120 120 121 122 123 122 118 116 116 111 106 108 110 109 108 110 111 111 112 111 111 113 114 115 115 114 114 113 112 111 109 106 104 102 101 101 101 100 98 98 97 97 95 93 91 89 89 90 91 93 96 98 101 103 105 106 107 107 108 110 111 112 114 116 118 119 118 117 117 117 116 114 112 111 111 111 111 111 110 108 109 110 110 111 112 115
120 121 122 123 122 121 119 117 114 112 110 110 109 108 109 110 110 111 113 113 113 114 115 115 115 115 114 113 112 111 110 109 107 105 103 101 99 99 98 98 98 98 97 95 93 91 90 88 88 89 91 93 95 98 101 103 104 106 107 110 113 114 115 116 118 119 119 118 118 119 119 119 119 119 118 118 118 117 116 115 114 114 116 118 119 121
119 121 122 123 122 121 120 119 116 114 112 111 109 109 110 111 111 112 115 115 115 116 116 116 116 116 115 113 112 111 110 110 110 109 108 105 102 101 100 99 99 99 98 97 96 95 93 90 88 87 88 89 91 94 96 98 99 102 105 108 112 115 117 118 119 119 119 119 119 120 121 122 122 123 124 124 124 124 124 123 122 121 122 124 125 126
118 119 121 123 122 121 121 121 118 116 113 111 110 110 110 112 113 115 118 118 117 117 118 118 117 116 115 112 111 110 111 112 112 110 110 109 106 104 103 102 101 101 100 98 97 97 96 94 92 90 89 90 90 91 93 94 96 98 101 104 108 111 115 118 119 119 119 119 119 119 121 122 124 126 128 129 131 132 132 131 129 127 127 128 129 129
116 117 119 121 122 121 122 122 120 117 114 112 112 111 112 113 115 117 120 119 117 117 119 120 119 117 116 113 110 108 109 111 111 110 110 110 108 107 105 104 103 103 102 101 99 99 98 96 95 95 94 94 93 93 93 93 95 97 99 101 103 106 109 112 114 115 115 115 115 116 117 118 120 123 126 129 131 133 133 133 132 131 131 132 132 133
113 115 117 119 121 121 122 123 122 118 115 113 113 113 113 114 116 117 117 117 116 117 119 120 120 119 117 115 111 107 105 107 108 109 109 109 109 108 106 105 104 103 103 102 100 99 98 97 96 97 97 98 97 96 95 95 96 97 99 101 102 104 105 107 108 109 109 109 109 110 110 112 113 116 118 122 124 127 129 130 130 130 130 130 130 130
111 113 115 117 118 120 121 122 121 118 114 114 115 115 115 115 115 114 114 114 115 116 117 118 119 119 118 117 114 110 106 103 103 104 105 106 107 107 107 106 105 103 102 102 100 100 99 97 96 97 98 100 100 100 99 98 98 98 100 101 103 104 105 106 106 106 106 106 106 105 105 106 107 109 112 114 117 119 121 123 124 123 123 122 122 120
109 111 113 114 116 117 118 118 118 116 114 115 118 117 116 116 114 112 111 112 113 114 115 116 116 116 116 116 115 113 109 105 102 100 100 101 103 105 106 105 104 102 101 102 102 101 100 98 97 97 99 100 102 102 101 101 100 99 99 101 103 104 104 105 106 105 104 104 104 104 103 103 103 104 106 108 110 112 114 115 116 116 115 114 113 112
107 109 111 111 112 113 114 113 113 113 114 115 116 116 115 115 114 113 112 111 111 112 112 112 111 111 113 113 113 112 110 107 104 101 100 100 101 102 104 104 104 103 102 102 102 102 102 100 98 99 99 100 102 102 102 102 100 98 98 100 102 102 102 102 103 103 103 103 103 103 102 102 102 102 103 105 107 108 108 109 109 110 110 109 108 108
105 106 109 109 107 108 110 108 107 110 112 111 110 111 111 110 110 112 112 110 108 109 109 108 107 106 108 109 109 108 107 106 105 103 101 100 99 101 102 103 104 104 103 103 103 103 103 101 100 100 101 101 103 104 104 103 101 98 97 99 100 100 99 99 99 99 100 100 101 102 102 101 101 101 102 104 106 106 106 105 105 106 107 107 107 107
101 103 107 105 102 103 105 102 102 105 106 104 104 105 106 106 106 107 108 107 105 105 105 105 104 103 103 104 104 104 103 103 103 102 101 99 98 98 100 101 102 103 103 103 103 102 102 101 100 101 101 101 102 104 104 103 102 101 99 100 101 100 98 97 97 97 98 99 100 101 101 101 101 101 102 104 105 105 105 104 104 104 105 106 107 107
97 100 103 101 99 101 100 98 100 104 104 102 102 102 103 104 104 104 103 103 102 102 102 103 102 101 101 101 101 101 100 99 100 99 98 98 97 97 98 98 98 99 100 100 101 101 101 100 99 100 100 100 101 103 103 102 102 102 102 102 103 102 99 97 96 96 97 98 100 100 100 99 100 100 102 104 105 105 105 104 104 104 105 105 106 107
95 97 98 98 101 102 98 96 99 105 104 102 101 101 102 104 103 102 101 101 100 100 100 100 100 100 100 100 100 100 98 97 98 98 97 96 95 96 96 95 95 95 96 96 98 99 99 99 98 98 98 98 99 101 102 100 100 101 102 103 104 104 101 98 96 96 96 97 99 99 99 98 98 99 101 103 104 104 104 104 103 103 104 104 105 105
96 96 95 99 102 100 97 97 101 104 103 101 100 101 103 103 102 101 101 100 99 99 98 97 97 98 98 98 98 98 97 96 96 97 97 95 94 94 93 93 93 93 93 93 94 95 96 97 97 97 97 96 97 99 99 98 98 99 100 100 101 102 101 99 96 95 95 96 97 99 99 98 97 97 99 100 101 102 102 102 102 102 102 102 103 103
96 96 96 100 101 97 95 98 101 102 101 98 99 102 103 103 102 101 100 99 97 96 94 94 94 95 96 96 96 96 95 95 95 96 96 94 93 92 92 92 92 91 91 92 92 92 93 94 94 95 95 96 96 97 96 96 97 99 99 98 97 97 98 98 96 94 93 93 95 98 100 99 97 96 97 98 99 99 100 100 100 100 100 100 100 100
94 95 97 100 99 95 93 95 97 99 99 97 98 101 101 101 101 100 99 98 96 94 93 92 92 93 93 94 94 94 93 92 91 92 92 92 91 91 90 91 91 90 91 91 91 91 92 92 92 92 92 93 95 95 93 92 94 97 99 97 94 93 93 94 94 93 91 91 94 98 101 101 98 96 96 97 98 98 97 97 98 97 97 98 98 98
Wind_Direction
286 287 289 285 280 279 283 287 287 285 285 285 287 288 288 288 287 283 283 284 283 284 289 288 286 287 285 282 282 282 282 282 282 282 282 282 284 286 287 286 284 283 283 283 280 275 272 271 273 273 272 271 268 267 267 269 268 265 262 260 258 258 258 258 256 256 256 257 258 259 260 262 263 264 264 264 265 265 266 266 266 265 265 265 266 267
288 290 290 283 281 283 285 285 283 283 284 285 286 285 285 286 283 282 283 283 283 284 282 281 284 287 286 285 285 285 283 280 280 282 284 284 284 285 285 284 285 285 284 283 282 279 275 273 273 274 273 272 272 270 267 266 268 269 267 264 261 260 260 260 259 259 258 259 260 261 262 263 264 265 265 265 266 267 267 267 267 267 267 267 268 268
291 293 289 283 283 286 286 285 284 284 285 286 286 283 281 281 280 283 285 283 282 284 281 279 280 280 283 287 288 286 284 282 279 281 283 286 286 284 282 283 284 285 283 282 282 280 277 275 275 274 274 274 274 274 270 267 266 268 269 268 265 263 261 261 261 261 261 262 262 263 264 264 265 266 266 267 267 268 268 268 268 268 269 269 269 269
293 292 288 285 285 286 287 286 287 287 287 287 286 282 279 278 279 281 282 281 282 284 284 282 278 276 279 283 286 286 283 281 281 281 283 285 286 285 285 285 284 284 283 282 281 279 277 277 276 274 274 274 274 274 274 272 269 267 267 267 267 265 264 263 263 263 263 263 263 264 264 265 265 266 267 268 268 268 268 269 269 269 269 269 270 270
295 291 287 285 284 286 288 288 288 287 286 286 286 285 281 278 278 279 278 276 280 285 286 284 281 280 280 281 284 284 281 281 282 284 285 284 284 285 287 288 286 284 283 283 282 281 279 277 276 275 274 274 274 274 274 274 273 270 268 267 267 267 267 265 264 264 264 264 264 265 265 265 265 266 266 267 267 268 268 269 269 269 269 269 269 270
295 291 287 285 285 286 288 289 288 285 283 285 288 286 283 280 280 280 277 275 276 279 281 284 284 280 278 280 282 282 282 283 284 286 286 285 284 285 286 287 286 285 284 284 284 283 281 279 277 275 274 275 275 275 274 273 272 271 269 268 267 267 267 267 266 265 265 265 266 266 266 266 266 266 266 266 267 268 268 268 268 268 268 268 269 270
292 289 288 288 287 287 288 288 286 284 284 285 286 284 283 284 283 281 279 277 275 274 275 281 284 281 275 274 276 277 279 282 284 285 284 285 285 285 284 284 284 284 284 284 284 283 282 280 278 276 274 274 274 275 275 274 273 272 271 270 270 269 268 268 267 266 265 265 265 266 266 266 267 267 267 269 270 269 268 267 267 267 268 268 269 270
287 286 288 289 289 289 288 286 285 285 286 285 283 282 283 285 285 283 281 279 277 274 273 277 282 281 275 272 272 272 276 280 281 282 281 282 284 284 282 281 282 284 285 284 284 283 282 280 279 278 277 275 274 274 273 272 272 272 271 271 272 271 270 269 269 268 267 266 266 265 266 266 267 268 269 270 270 269 268 268 268 268 268 269 269 270
284 284 287 288 289 289 287 285 286 286 286 285 283 282 283 284 284 284 282 281 279 275 275 278 280 279 275 273 271 270 273 275 274 276 277 278 280 281 280 280 281 283 285 285 285 284 282 280 279 278 278 278 276 275 273 271 270 270 270 270 270 269 269 269 268 268 268 268 268 267 266 266 266 267 268 268 268 267 267 267 267 268 268 269 269 270
285 285 286 287 288 287 286 287 287 287 286 285 284 282 282 282 283 283 282 282 280 277 277 277 278 276 273 272 273 272 270 270 270 272 273 274 276 277 279 282 282 282 283 283 284 284 282 281 280 278 277 277 277 276 275 273 271 269 268 268 267 265 265 265 266 265 265 266 266 267 266 266 266 266 267 267 267 267 267 267 268 269 270 271 272 273
284 286 288 287 287 287 287 286 287 287 287 286 285 284 283 283 282 282 282 282 280 279 279 278 275 274 272 272 274 273 269 267 267 268 269 269 271 274 277 280 282 283 282 282 283 284 284 283 281 279 277 276 275 275 275 274 273 271 269 267 265 264 263 264 264 265 265 265 265 265 264 265 265 266 266 267 267 268 268 269 269 270 271 272 273 274
284 286 287 287 288 288 287 286 287 287 286 286 285 285 285 285 284 283 284 283 281 280 280 279 276 274 274 276 277 275 272 268 263 262 265 267 268 270 273 274 276 278 280 281 281 282 283 283 283 281 279 277 275 274 273 273 272 271 270 268 267 265 264 264 265 265 266 266 266 266 266 266 266 267 268 268 268 269 269 270 270 271 271 272 273 274
285 286 287 287 287 286 286 286 287 286 286 286 287 288 288 288 288 288 288 286 285 284 284 282 278 276 276 279 279 278 277 275 269 263 262 262 265 268 270 271 271 270 272 275 277 278 279 280 282 282 281 278 277 275 274 272 271 270 270 269 269 268 267 267 267 267 267 266 266 266 267 267 268 269 270 270 270 270 270 270 271 271 271 272 273 273
284 284 286 287 286 286 286 286 286 286 287 288 290 291 291 292 293 292 290 288 287 288 287 285 283 283 283 283 282 281 280 280 279 275 269 263 262 263 265 268 270 269 269 270 273 275 276 276 276 276 277 277 277 276 275 273 272 271 270 269 269 269 269 268 268 268 268 267 267 266 267 268 269 270 270 270 270 270 270 271 271 271 272 272 272 273
284 284 285 285 284 284 285 286 286 287 288 289 290 289 290 293 292 290 289 290 291 291 289 288 288 289 290 288 285 284 283 282 283 283 282 278 274 269 265 265 268 269 269 269 269 270 272 274 274 272 271 272 273 273 273 272 271 270 270 270 269 269 269 268 268 267 267 266 266 266 266 267 268 269 269 270 270 270 270 270 270 270 269 270 271 273
286 287 287 284 283 284 284 285 286 287 289 290 291 291 291 290 288 287 289 291 291 289 289 290 290 291 291 289 287 287 287 287 287 287 287 286 284 281 276 272 269 268 267 268 267 266 267 270 273 272 270 270 270 270 270 269 269 269 269 269 270 270 269 268 267 266 265 265 264 264 265 265 266 267 268 269 269 270 269 268 268 267 266 267 269 272
286 287 286 284 284 284 283 283 285 286 288 289 290 290 288 286 287 288 289 289 289 288 290 291 291 291 291 289 288 288 288 287 287 287 287 286 286 285 283 280 276 272 269 267 266 264 264 266 270 271 271 270 269 268 268 267 266 267 267 268 268 268 268 269 268 268 267 267 266 265 265 265 266 266 267 268 268 268 268 268 267 266 265 266 268 271
286 285 285 285 285 284 283 282 284 286 288 288 288 286 284 285 286 287 287 287 288 288 289 289 289 289 288 288 288 287 285 285 285 285 285 285 284 283 283 281 278 275 273 271 269 267 266 266 268 270 270 269 267 266 265 265 264 264 265 266 266 265 265 267 268 269 269 268 267 266 266 266 266 266 266 267 267 267 267 267 267 266 265 266 268 270
285 285 286 286 286 286 285 284 285 287 288 287 285 285 285 285 286 285 285 286 286 287 287 287 286 286 285 285 284 282 281 282 282 283 282 281 280 279 277 277 275 274 273 274 274 273 271 269 269 269 269 268 268 266 264 262 261 262 263 263 263 263 263 264 267 268 268 268 267 267 266 266 266 266 266 267 267 267 267 267 267 267 266 267 268 269
285 285 285 285 285 284 285 285 285 285 285 284 284 285 286 286 286 285 285 285 285 286 286 285 285 284 283 282 281 280 279 279 279 279 279 278 276 275 274 273 273 272 272 273 274 274 273 272 270 269 268 267 266 265 264 261 259 259 260 261 261 261 261 262 264 266 267 267 267 267 266 266 266 266 267 267 268 268 268 268 268 268 268 268 268 268
284 284 285 285 284 284 284 284 284 283 284 285 285 285 285 285 285 284 284 284 284 285 285 285 285 285 284 283 283 282 280 278 277 276 276 275 274 273 272 271 271 271 271 270 270 269 269 269 269 269 268 267 266 264 263 261 258 258 258 259 260 260 260 261 263 264 265 266 267 267 266 265 265 265 266 267 268 268 268 268 268 268 268 268 268 269
284 284 284 285 285 285 284 284 284 284 285 286 286 286 286 285 284 283 283 284 284 285 286 286 286 286 286 287 287 286 282 280 278 277 275 274 273 272 271 270 269 269 268 267 266 265 265 265 265 266 267 267 266 266 264 261 258 257 257 258 259 260 260 260 262 263 264 264 265 265 266 266 265 266 267 267 268 268 268 267 267 267 268 268 268 269
283 283 284 284 284 284 283 283 284 284 285 285 285 286 285 285 284 283 284 285 286 286 287 288 287 287 287 289 290 287 284 282 280 279 278 276 275 273 271 270 268 267 266 265 264 263 262 262 262 263 264 264 265 265 264 262 260 258 258 258 259 260 260 259 260 262 262 262 262 262 263 264 265 266 267 268 268 268 268 267 267 266 267 268 269 270
282 282 282 282 283 283 283 283 283 283 284 284 284 284 284 283 283 284 285 285 286 286 287 288 287 287 288 290 288 286 284 283 281 281 280 278 277 276 275 273 271 268 266 264 262 261 260 260 261 262 263 264 265 265 265 264 262 261 261 262 262 261 261 260 259 261 262 261 260 260 260 261 262 263 264 266 267 268 268 268 267 267 267 268 269 270
280 280 281 281 282 283 283 283 283 283 283 283 283 283 282 282 282 282 282 283 284 285 286 286 286 286 288 287 286 283 283 282 282 281 280 278 276 275 274 273 271 270 268 266 263 261 260 261 262 264 265 266 267 267 266 265 264 263 263 263 263 263 262 261 260 261 262 262 261 260 259 259 260 261 262 263 264 266 267 267 268 268 268 268 269 270
279 279 279 280 281 282 282 283 283 282 281 281 281 281 280 280 280 280 280 281 283 284 285 285 285 286 286 285 284 282 280 279 278 277 277 276 275 273 271 270 269 270 271 270 269 267 266 265 265 265 267 267 268 267 266 265 264 263 262 261 262 262 262 262 262 261 261 262 262 261 260 259 260 260 261 262 263 264 265 266 267 268 268 268 269 269
278 278 279 279 280 280 281 281 281 281 280 279 278 278 277 277 277 277 278 280 282 283 284 284 285 285 284 283 282 280 278 277 275 273 271 271 272 272 272 273 273 273 273 272 271 270 270 270 269 268 268 268 269 268 266 265 264 264 263 262 261 260 261 261 261 261 260 259 259 260 259 259 259 260 260 261 262 262 264 265 266 266 266 267 268 269
276 277 278 278 278 279 279 279 279 279 278 278 277 276 275 275 275 276 277 279 281 281 282 283 283 283 282 281 279 278 276 275 274 272 271 270 270 271 273 275 275 275 275 274 273 271 270 270 270 270 270 271 270 270 269 267 265 265 264 264 263 261 261 260 260 260 259 258 258 258 258 259 259 259 260 261 261 262 262 263 264 264 264 265 266 268
275 276 276 277 277 277 277 277 277 277 277 277 276 276 276 276 276 276 278 279 279 279 281 281 281 280 280 279 277 276 275 274 273 273 272 272 271 271 272 273 273 274 275 275 274 273 272 271 271 271 272 272 272 272 272 270 268 266 266 265 265 264 263 262 262 261 260 258 258 257 257 257 258 259 260 260 261 261 262 263 263 263 264 265 266 267
276 275 276 276 275 275 275 276 276 276 276 276 276 276 277 277 278 278 279 278 278 278 279 279 279 279 279 277 276 276 276 276 275 273 272 271 270 270 269 269 269 270 271 271 271 272 272 272 271 271 271 272 272 273 274 273 272 270 269 268 268 267 265 264 263 262 261 260 259 258 258 257 258 259 260 260 261 262 262 263 264 264 265 266 267 268
276 276 276 276 275 275 275 276 276 276 276 276 276 276 278 279 279 280 279 278 278 277 276 276 276 276 276 277 277 278 277 276 275 273 272 271 270 270 269 268 267 267 268 268 269 268 268 269 269 270 271 271 272 272 273 273 274 273 272 272 272 271 269 267 265 263 262 262 261 260 260 259 259 260 260 260 261 262 262 263 264 265 265 266 268 269
278 277 277 276 275 276 276 276 276 276 276 275 276 278 279 279 279 278 278 278 278 277 276 276 275 275 275 276 277 278 277 276 275 274 273 272 272 271 270 269 268 267 266 266 266 266 266 266 267 267 268 269 270 271 271 271 272 272 273 273 273 273 273 271 269 267 264 264 265 264 263 263 262 261 262 262 263 263 264 264 265 266 267 267 268 269
278 278 278 277 277 277 277 277 277 276 275 276 280 281 280 278 277 277 277 277 277 278 278 277 276 276 276 275 275 276 276 276 276 275 275 274 274 273 271 270 269 268 266 265 265 265 265 265 265 265 265 265 266 267 268 268 269 270 271 271 272 272 272 272 272 271 269 269 269 268 266 266 265 264 265 265 266 266 266 267 266 266 266 266 267 269
277 277 277 277 277 278 278 278 276 276 277 280 281 279 277 277 277 277 278 278 278 278 278 278 277 277 276 276 275 275 276 276 276 276 277 277 276 275 274 272 270 268 267 265 264 264 263 263 264 264 264 264 264 264 264 264 265 266 267 268 269 269 270 270 271 272 273 273 273 272 270 269 269 269 269 270 271 272 272 271 270 269 269 270 271 274
278 277 277 277 278 279 279 278 277 278 280 281 279 277 277 277 278 278 278 278 277 277 277 277 277 277 277 277 277 276 276 276 276 276 276 277 277 277 276 274 272 270 267 266 264 263 263 262 262 263 263 263 263 263 263 263 262 263 263 264 265 266 267 268 269 270 271 273 274 274 273 273 273 273 273 274 274 274 274 273 273 272 272 273 275 276
278 278 278 277 278 279 279 279 279 280 280 278 277 277 278 277 277 278 277 277 276 276 276 276 276 276 276 276 277 277 277 277 276 275 275 275 275 276 275 275 274 273 271 269 267 265 263 261 261 260 261 261 262 262 262 262 261 261 261 262 262 263 264 265 267 268 269 270 271 272 273 274 275 275 275 274 274 273 272 272 272 273 274 275 276 277
278 278 278 278 278 279 279 280 280 280 279 278 278 278 278 278 278 278 277 277 276 276 276 276 276 275 275 275 276 276 277 277 277 276 275 275 274 274 274 274 274 274 273 272 270 268 265 262 260 259 259 260 261 261 261 261 261 260 260 260 261 262 262 263 264 266 266 267 268 269 270 272 273 273 273 273 273 273 272 272 272 273 274 275 275 276
278 278 278 279 279 280 280 280 280 279 279 279 279 279 279 279 279 278 277 276 276 276 276 275 275 275 275 275 275 276 276 276 276 276 276 276 275 275 274 274 274 273 273 273 272 271 269 266 263 261 259 259 259 260 260 261 260 260 259 258 258 259 261 262 262 263 264 264 265 265 266 267 268 269 270 270 270 270 271 271 271 271 272 272 273 274
277 277 278 278 279 279 279 279 279 279 279 279 279 279 279 279 278 278 277 277 277 277 277 276 275 275 274 274 273 274 274 274 275 275 275 276 276 275 275 275 274 274 273 273 272 271 271 269 267 265 263 261 259 259 260 260 260 260 259 259 258 258 259 260 261 261 262 263 263 264 264 264 265 266 266 267 267 268 268 269 269 270 271 272 273 274
277 277 278 278 278 279 279 279 279 279 279 280 280 279 279 278 277 277 277 277 277 278 277 277 277 276 275 274 273 273 273 273 274 275 275 275 276 275 275 275 275 274 274 273 272 271 271 270 269 268 267 264 262 261 260 259 259 259 259 259 259 259 259 259 260 261 262 262 262 263 263 263 263 263 264 264 265 266 267 268 269 270 270 272 273 273
276 276 277 277 278 278 279 279 279 279 280 280 280 279 278 277 276 276 276 277 277 277 277 277 277 277 277 276 275 274 272 272 273 274 274 275 276 276 276 275 275 274 274 273 272 272 271 270 269 269 268 267 265 263 261 260 259 258 258 258 258 258 259 259 260 261 261 262 262 262 262 262 262 262 262 263 264 265 266 267 268 269 270 271 271 272
275 275 276 277 277 278 278 279 280 281 281 281 280 278 277 277 276 276 276 277 276 276 276 276 276 277 277 277 277 276 275 273 272 272 273 274 274 275 275 275 275 275 274 274 273 272 270 269 268 268 268 267 266 265 263 261 259 258 257 257 257 257 258 258 259 259 260 261 262 262 262 262 262 262 263 263 264 264 265 266 267 268 269 270 270 271
275 275 275 275 276 276 277 278 280 281 281 280 279 279 278 278 278 277 276 276 275 275 275 274 275 275 276 277 277 278 277 276 275 274 273 273 273 274 274 274 274 274 273 273 272 271 270 269 267 267 266 266 266 265 264 263 261 259 258 257 256 256 256 256 257 258 258 259 260 261 262 262 262 263 263 263 264 264 265 266 267 267 268 268 269 270
275 275 275 275 275 276 277 278 279 279 279 278 278 279 279 279 279 279 277 276 275 275 274 274 274 275 275 276 276 277 278 278 277 276 275 274 274 274 274 274 273 273 272 271 271 271 270 269 268 267 267 267 267 266 265 264 263 261 260 259 258 257 256 256 256 257 257 258 258 259 260 260 261 262 262 263 263 264 264 265 265 266 267 268 268 269
275 276 276 275 276 276 277 277 277 277 277 277 277 278 278 278 278 278 277 277 277 276 276 276 275 275 275 275 275 276 276 277 277 277 276 275 274 273 273 273 273 273 272 272 271 271 270 270 269 268 268 268 268 268 268 268 267 265 264 263 262 260 259 258 258 257 257 257 257 257 258 258 259 259 260 261 261 262 263 263 264 265 266 267 268 269
277 277 277 277 277 277 277 277 277 276 276 277 277 277 277 277 276 276 276 277 277 277 277 277 277 276 276 276 276 275 275 275 275 275 275 274 274 273 272 272 272 272 272 272 271 271 270 270 269 269 268 268 267 268 267 267 268 267 266 265 264 263 262 260 260 259 259 258 257 257 256 256 256 257 258 258 259 260 261 262 263 264 265 266 267 268
279 278 278 279 279 278 278 278 278 278 277 277 277 277 277 277 277 276 277 277 277 277 277 277 277 277 277 277 277 276 276 276 275 275 274 274 273 273 272 271 271 271 271 271 271 270 270 269 269 268 268 267 267 266 266 265 265 265 265 264 264 263 262 261 260 260 259 259 259 258 257 256 256 256 256 257 258 259 260 261 261 262 263 264 265 266
279 279 280 280 279 278 279 279 279 278 278 278 278 279 279 278 278 278 278 278 277 277 276 277 277 277 277 277 277 277 277 277 276 276 275 274 273 272 272 271 270 270 269 269 269 269 269 269 268 268 268 267 267 267 266 265 264 264 264 263 263 263 262 261 260 260 259 260 260 259 259 257 256 256 256 256 257 257 258 259 260 261 262 262 263 264
280 279 279 278 277 278 280 280 278 278 279 280 280 280 279 279 279 278 278 278 277 277 277 277 277 277 277 277 277 277 277 277 276 276 275 274 273 273 272 271 271 270 269 268 268 268 268 268 268 268 268 267 267 267 267 267 266 265 264 262 262 263 263 262 261 260 259 260 260 261 260 259 258 257 257 257 257 257 257 258 258 259 259 260 261 262
279 279 278 277 277 278 278 278 278 278 279 280 280 279 279 279 279 279 279 279 279 279 279 279 279 278 278 277 277 277 276 276 275 275 275 274 274 273 272 272 271 270 270 269 268 268 267 267 267 267 268 268 267 267 267 268 268 268 267 265 263 263 263 263 262 261 260 259 260 261 261 260 259 259 258 258 258 257 257 258 258 258 258 258 259 259
278 278 277 277 277 277 277 277 278 278 279 279 278 278 278 278 279 280 280 281 281 281 281 280 280 279 279 278 278 277 275 275 274 274 274 274 273 273 272 272 271 271 271 270 270 270 269 269 268 267 267 267 268 268 268 267 268 269 269 269 267 265 264 264 263 263 261 260 260 260 261 261 260 259 259 259 259 258 258 258 258 257 257 257 258 258
Height
10747 10749 10751 10746 10737 10733 10734 10736 10738 10738 10737 10739 10740 10741 10741 10742 10742 10736 10734 10734 10731 10742 10745 10737 10742 10745 10741 10740 10735 10729 10728 10725 10721 10720 10722 10723 10723 10723 10722 10722 10722 10723 10723 10721 10721 10721 10720 10720 10719 10719 10718 10718 10717 10717 10717 10715 10714 10714 10713 10712 10711 10712 10713 10714 10713 10714 10714 10714 10714 10714 10714 10714 10714 10714 10714 10713 10713 10713 10713 10713 10712 10712 10711 10712 10711 10711
10741 10745 10745 10736 10730 10730 10731 10730 10729 10731 10731 10733 10734 10735 10736 10735 10734 10731 10729 10728 10726 10736 10742 10734 10738 10743 10737 10735 10733 10727 10723 10722 10719 10716 10716 10717 10719 10719 10717 10716 10717 10718 10718 10717 10716 10716 10715 10716 10715 10714 10713 10712 10712 10712 10712 10711 10709 10709 10708 10707 10706 10707 10707 10706 10707 10708 10708 10708 10708 10708 10708 10707 10708 10707 10706 10706 10706 10706 10706 10705 10705 10705 10705 10705 10704 10703
10737 10741 10736 10728 10725 10725 10725 10723 10722 10724 10725 10726 10726 10727 10729 10726 10725 10729 10725 10721 10722 10728 10734 10732 10735 10740 10736 10732 10729 10724 10720 10717 10717 10716 10713 10712 10712 10712 10711 10712 10713 10713 10711 10712 10712 10710 10710 10711 10710 10708 10707 10707 10707 10706 10706 10706 10706 10705 10704 10703 10702 10702 10700 10700 10700 10701 10701 10702 10702 10701 10700 10700 10700 10700 10699 10699 10699 10698 10698 10698 10698 10698 10698 10697 10696 10696
10735 10734 10727 10722 10720 10720 10720 10717 10715 10716 10718 10720 10718 10717 10721 10717 10715 10724 10722 10715 10717 10721 10725 10727 10730 10737 10734 10730 10727 10720 10716 10714 10713 10715 10713 10709 10705 10704 10705 10706 10708 10707 10705 10705 10705 10705 10705 10706 10705 10704 10702 10702 10701 10701 10700 10701 10702 10701 10699 10698 10697 10696 10695 10695 10694 10694 10695 10695 10695 10694 10693 10693 10693 10692 10692 10692 10691 10691 10691 10692 10691 10691 10690 10690 10689 10688
10730 10724 10719 10716 10714 10714 10715 10713 10708 10706 10710 10713 10711 10708 10710 10708 10706 10715 10716 10712 10714 10715 10715 10717 10725 10734 10730 10726 10725 10715 10710 10711 10710 10712 10710 10705 10702 10699 10699 10699 10699 10700 10699 10699 10698 10698 10700 10701 10700 10699 10697 10696 10696 10695 10695 10695 10695 10695 10694 10693 10692 10691 10690 10689 10688 10688 10689 10688 10687 10687 10686 10686 10686 10685 10685 10683 10682 10684 10684 10684 10684 10683 10683 10682 10681 10681
10722 10712 10708 10711 10710 10708 10708 10708 10701 10694 10701 10709 10706 10698 10696 10698 10700 10705 10706 10705 10711 10712 10708 10708 10716 10727 10727 10724 10721 10710 10706 10709 10708 10708 10705 10700 10699 10697 10696 10693 10691 10692 10693 10693 10693 10691 10691 10693 10694 10693 10692 10691 10691 10689 10689 10690 10689 10688 10688 10688 10687 10686 10684 10683 10683 10683 10682 10682 10681 10680 10680 10679 10679 10678 10677 10675 10676 10678 10677 10676 10676 10676 10675 10675 10675 10674
10714 10701 10698 10702 10705 10703 10702 10700 10691 10683 10693 10705 10700 10689 10685 10689 10693 10695 10695 10696 10703 10706 10705 10703 10706 10716 10722 10721 10716 10708 10704 10706 10705 10703 10699 10695 10693 10693 10693 10690 10684 10684 10687 10687 10688 10685 10684 10685 10685 10685 10685 10685 10685 10683 10683 10683 10682 10682 10681 10680 10680 10679 10678 10677 10677 10677 10676 10675 10675 10674 10673 10672 10672 10670 10668 10669 10671 10671 10669 10669 10669 10668 10668 10668 10667 10667
10703 10695 10694 10693 10694 10697 10695 10689 10682 10677 10685 10695 10690 10682 10681 10680 10681 10685 10685 10687 10692 10697 10700 10700 10697 10701 10712 10715 10710 10705 10704 10704 10703 10699 10694 10691 10689 10686 10687 10686 10681 10679 10680 10681 10681 10679 10677 10677 10677 10676 10677 10678 10678 10678 10677 10676 10675 10675 10674 10673 10673 10672 10671 10670 10670 10669 10668 10668 10668 10667 10666 10665 10664 10662 10662 10664 10664 10662 10661 10661 10661 10661 10660 10660 10660 10660
10692 10690 10691 10688 10687 10686 10683 10678 10675 10673 10675 10680 10677 10675 10675 10672 10672 10674 10675 10677 10679 10686 10694 10695 10687 10686 10698 10707 10702 10702 10702 10699 10698 10695 10689 10688 10686 10681 10679 10681 10679 10675 10674 10673 10672 10671 10669 10669 10669 10669 10669 10669 10670 10670 10670 10669 10667 10667 10666 10665 10665 10664 10663 10663 10662 10662 10661 10660 10660 10659 10658 10657 10656 10656 10656 10656 10655 10654 10654 10654 10654 10653 10653 10652 10652 10652
10682 10683 10685 10683 10681 10676 10672 10669 10667 10664 10664 10666 10664 10665 10666 10663 10665 10664 10664 10667 10665 10674 10688 10686 10677 10672 10684 10699 10696 10696 10697 10691 10691 10688 10683 10683 10682 10678 10675 10675 10675 10671 10669 10667 10663 10662 10660 10660 10660 10660 10661 10661 10661 10662 10661 10660 10659 10659 10658 10657 10657 10656 10656 10656 10655 10654 10653 10653 10653 10651 10650 10649 10648 10649 10648 10648 10647 10646 10646 10646 10646 10645 10645 10645 10644 10643
10674 10676 10677 10676 10672 10668 10664 10661 10659 10656 10653 10653 10652 10654 10654 10653 10656 10653 10655 10657 10651 10664 10678 10672 10665 10659 10670 10692 10692 10686 10687 10684 10683 10678 10674 10677 10676 10675 10673 10671 10670 10666 10664 10663 10658 10653 10650 10651 10651 10650 10652 10653 10653 10653 10652 10651 10650 10649 10649 10648 10648 10648 10647 10647 10646 10646 10646 10646 10645 10643 10642 10641 10641 10641 10640 10639 10638 10638 10638 10638 10638 10637 10637 10636 10635 10634
10668 10668 10667 10666 10662 10659 10655 10652 10652 10648 10643 10642 10642 10643 10642 10642 10644 10643 10646 10645 10638 10653 10666 10658 10651 10647 10661 10686 10684 10676 10675 10672 10672 10669 10666 10669 10669 10670 10669 10667 10667 10662 10658 10657 10654 10648 10643 10641 10641 10640 10641 10642 10643 10644 10643 10642 10640 10640 10640 10639 10639 10639 10638 10638 10638 10638 10638 10637 10635 10634 10633 10633 10633 10632 10631 10630 10629 10629 10630 10629 10629 10629 10628 10627 10627 10626
10662 10661 10656 10655 10654 10648 10643 10642 10642 10638 10633 10632 10633 10632 10629 10629 10631 10631 10633 10629 10624 10640 10651 10642 10634 10637 10659 10677 10671 10665 10664 10658 10660 10660 10660 10661 10660 10661 10661 10660 10661 10659 10655 10651 10648 10644 10639 10635 10634 10631 10630 10630 10631 10633 10634 10633 10631 10631 10631 10631 10631 10630 10629 10629 10630 10630 10629 10628 10626 10626 10626 10625 10624 10624 10622 10621 10621 10620 10621 10621 10621 10620 10619 10619 10617 10616
10653 10655 10650 10644 10642 10639 10636 10631 10628 10627 10626 10624 10625 10621 10614 10614 10616 10614 10613 10609 10611 10627 10633 10625 10620 10631 10655 10665 10656 10655 10654 10650 10649 10648 10649 10652 10653 10653 10652 10649 10648 10649 10648 10644 10641 10638 10633 10630 10628 10626 10622 10620 10621 10622 10623 10623 10622 10622 10621 10621 10621 10621 10620 10620 10620 10621 10620 10619 10618 10618 10618 10617 10616 10615 10613 10612 10612 10612 10612 10612 10612 10612 10611 10609 10607 10606
10636 10644 10647 10636 10628 10629 10629 10621 10614 10614 10617 10617 10617 10609 10603 10606 10600 10589 10589 10593 10599 10608 10611 10610 10609 10621 10641 10648 10642 10642 10643 10642 10639 10636 10637 10640 10643 10644 10643 10640 10637 10636 10634 10631 10631 10628 10622 10620 10619 10619 10617 10613 10612 10612 10612 10612 10611 10611 10611 10611 10611 10611 10611 10611 10610 10611 10610 10609 10610 10610 10609 10608 10607 10606 10604 10604 10603 10604 10604 10604 10604 10603 10602 10600 10597 10596
10616 10628 10638 10626 10617 10620 10619 10612 10606 10604 10604 10606 10605 10599 10596 10595 10584 10572 10574 10580 10581 10580 10587 10598 10601 10608 10622 10627 10628 10629 10630 10630 10626 10623 10625 10626 10628 10630 10630 10630 10627 10624 10619 10616 10616 10613 10610 10609 10608 10608 10609 10606 10604 10602 10601 10601 10600 10600 10600 10600 10601 10600 10600 10600 10599 10600 10600 10600 10600 10600 10598 10597 10597 10596 10595 10594 10594 10594 10594 10594 10594 10594 10592 10590 10588 10586
10598 10608 10621 10616 10609 10611 10607 10601 10599 10596 10593 10591 10590 10590 10586 10578 10571 10565 10562 10565 10562 10553 10562 10578 10585 10594 10602 10607 10616 10619 10617 10617 10612 10611 10613 10612 10613 10614 10613 10612 10611 10608 10605 10600 10597 10594 10595 10597 10596 10596 10597 10596 10595 10591 10589 10590 10590 10590 10589 10589 10590 10589 10588 10587 10588 10589 10590 10591 10590 10589 10588 10587 10587 10586 10585 10584 10584 10584 10584 10583 10583 10583 10581 10580 10578 10577
10577 10583 10601 10606 10599 10598 10595 10591 10590 10589 10585 10577 10572 10575 10573 10566 10565 10561 10549 10547 10546 10538 10542 10554 10562 10573 10581 10589 10605 10609 10603 10602 10599 10598 10599 10598 10600 10600 10596 10592 10591 10589 10585 10582 10581 10580 10581 10582 10582 10582 10582 10583 10582 10580 10579 10579 10579 10578 10578 10578 10578 10577 10577 10576 10577 10579 10579 10580 10579 10578 10579 10577 10577 10576 10575 10574 10574 10573 10573 10572 10571 10571 10570 10569 10567 10566
10558 10556 10574 10593 10590 10581 10579 10580 10582 10584 10577 10563 10555 10557 10558 10554 10554 10552 10541 10534 10531 10525 10526 10532 10538 10549 10560 10574 10589 10593 10593 10592 10587 10583 10583 10582 10584 10585 10579 10573 10571 10569 10566 10567 10568 10567 10566 10565 10565 10565 10565 10565 10564 10563 10565 10567 10568 10567 10565 10566 10566 10564 10565 10566 10567 10568 10568 10569 10569 10569 10569 10568 10567 10566 10564 10564 10564 10564 10563 10560 10559 10559 10558 10557 10556 10554
10543 10536 10546 10572 10580 10569 10564 10568 10574 10574 10563 10550 10545 10545 10545 10542 10539 10535 10528 10522 10518 10512 10509 10510 10511 10521 10541 10560 10569 10575 10579 10579 10574 10569 10566 10563 10564 10564 10561 10555 10552 10551 10551 10552 10551 10549 10548 10545 10544 10545 10545 10545 10544 10543 10545 10549 10554 10555 10552 10551 10551 10551 10553 10555 10555 10556 10557 10558 10559 10560 10560 10559 10557 10555 10553 10553 10553 10554 10551 10547 10547 10547 10545 10544 10543 10541
10531 10523 10523 10541 10555 10555 10555 10557 10556 10551 10544 10538 10536 10534 10532 10530 10526 10517 10509 10509 10507 10498 10492 10489 10483 10491 10517 10540 10552 10558 10557 10553 10553 10552 10548 10546 10544 10542 10540 10535 10532 10533 10532 10531 10529 10528 10527 10525 10522 10523 10524 10524 10524 10525 10527 10530 10535 10539 10538 10535 10534 10538 10544 10546 10544 10544 10546 10547 10548 10550 10550 10548 10546 10544 10543 10544 10543 10542 10539 10535 10533 10532 10531 10531 10530 10527
10518 10511 10506 10512 10523 10531 10539 10541 10533 10528 10527 10524 10520 10519 10519 10516 10509 10497 10488 10493 10494 10482 10475 10470 10460 10464 10490 10518 10534 10536 10531 10528 10527 10527 10529 10530 10526 10520 10517 10513 10510 10509 10507 10506 10506 10505 10506 10505 10503 10502 10503 10503 10504 10505 10509 10513 10517 10521 10523 10521 10520 10526 10536 10538 10535 10531 10533 10536 10537 10538 10537 10535 10534 10534 10533 10532 10531 10530 10526 10521 10518 10517 10517 10517 10515 10513
10502 10493 10489 10492 10497 10504 10515 10522 10518 10511 10510 10507 10501 10502 10503 10496 10490 10479 10470 10474 10473 10461 10456 10452 10442 10442 10466 10498 10513 10508 10503 10504 10503 10503 10507 10507 10502 10497 10494 10490 10486 10484 10483 10482 10482 10484 10485 10485 10484 10482 10483 10484 10485 10487 10491 10497 10503 10507 10509 10511 10513 10517 10524 10527 10524 10518 10517 10521 10524 10524 10522 10522 10523 10522 10520 10518 10517 10515 10511 10506 10504 10503 10503 10502 10500 10500
10485 10474 10470 10472 10475 10480 10490 10500 10503 10500 10494 10485 10482 10486 10482 10475 10472 10463 10455 10454 10447 10439 10442 10438 10427 10429 10449 10475 10487 10483 10479 10481 10483 10485 10484 10479 10475 10473 10470 10466 10461 10458 10459 10459 10459 10463 10466 10467 10467 10466 10466 10469 10471 10475 10480 10484 10491 10497 10500 10502 10504 10506 10508 10508 10507 10503 10501 10503 10507 10509 10509 10510 10510 10507 10505 10504 10501 10499 10495 10492 10490 10489 10488 10487 10486 10485
10468 10457 10453 10453 10454 10458 10467 10475 10482 10485 10478 10463 10460 10466 10463 10458 10456 10447 10442 10438 10426 10424 10432 10423 10413 10423 10438 10448 10456 10461 10462 10462 10465 10467 10462 10454 10451 10450 10446 10440 10436 10435 10438 10442 10446 10449 10452 10454 10456 10456 10456 10457 10459 10463 10468 10471 10476 10483 10487 10486 10485 10486 10487 10485 10486 10485 10484 10485 10489 10493 10494 10494 10493 10492 10491 10488 10486 10483 10480 10477 10475 10475 10473 10471 10469 10469
10446 10441 10442 10441 10438 10440 10446 10452 10457 10460 10457 10448 10444 10446 10445 10443 10439 10431 10426 10419 10410 10414 10419 10408 10402 10414 10423 10425 10429 10437 10441 10442 10445 10449 10444 10434 10424 10420 10419 10416 10417 10422 10426 10432 10437 10438 10439 10440 10442 10444 10443 10442 10443 10445 10448 10450 10454 10461 10465 10464 10463 10464 10464 10463 10464 10465 10466 10468 10472 10474 10476 10476 10475 10476 10475 10473 10471 10468 10465 10463 10462 10461 10459 10455 10452 10451
10423 10422 10427 10427 10422 10423 10427 10432 10436 10435 10431 10429 10429 10428 10428 10427 10424 10419 10410 10403 10403 10401 10395 10394 10398 10398 10400 10405 10406 10410 10414 10415 10419 10423 10423 10417 10405 10399 10402 10403 10407 10412 10414 10420 10424 10425 10424 10423 10423 10424 10424 10423 10423 10423 10425 10428 10433 10439 10442 10443 10443 10443 10444 10444 10444 10445 10448 10451 10454 10456 10457 10457 10457 10457 10456 10456 10455 10452 10450 10449 10448 10446 10443 10439 10436 10436
10406 10403 10411 10412 10405 10405 10408 10410 10415 10414 10408 10408 10408 10406 10408 10410 10410 10407 10399 10397 10399 10385 10373 10384 10390 10378 10376 10383 10383 10385 10388 10388 10391 10395 10398 10399 10395 10394 10397 10397 10397 10397 10397 10400 10404 10406 10408 10407 10405 10404 10403 10402 10402 10402 10404 10408 10414 10419 10422 10423 10423 10423 10424 10425 10425 10427 10430 10432 10436 10439 10439 10438 10437 10438 10438 10438 10437 10435 10434 10433 10431 10429 10427 10424 10423 10422
10391 10387 10396 10398 10389 10388 10389 10390 10394 10394 10389 10388 10385 10383 10388 10391 10391 10389 10387 10390 10387 10368 10360 10370 10369 10359 10359 10360 10357 10360 10364 10367 10373 10377 10378 10379 10380 10383 10387 10386 10383 10382 10381 10380 10381 10384 10387 10388 10389 10388 10386 10385 10384 10384 10387 10389 10394 10399 10401 10402 10403 10403 10405 10406 10406 10409 10412 10414 10418 10421 10420 10418 10419 10420 10420 10419 10418 10417 10416 10414 10413 10411 10410 10409 10409 10409
10371 10369 10380 10382 10372 10369 10371 10373 10376 10374 10369 10368 10366 10364 10368 10371 10372 10373 10371 10372 10366 10353 10351 10353 10347 10342 10339 10332 10333 10342 10346 10350 10355 10357 10358 10358 10359 10364 10369 10369 10369 10368 10366 10366 10366 10366 10367 10368 10370 10370 10370 10370 10369 10369 10370 10371 10375 10379 10382 10383 10383 10385 10387 10386 10387 10391 10393 10396 10399 10400 10399 10400 10402 10403 10402 10401 10400 10399 10398 10396 10395 10394 10394 10396 10396 10395
10353 10350 10358 10361 10351 10349 10358 10360 10357 10353 10348 10345 10346 10351 10355 10355 10357 10356 10350 10346 10343 10337 10338 10338 10331 10326 10319 10312 10319 10327 10327 10331 10335 10334 10335 10336 10338 10343 10347 10351 10354 10354 10353 10352 10351 10352 10352 10353 10353 10353 10354 10354 10354 10355 10355 10355 10357 10359 10363 10365 10365 10366 10367 10366 10370 10373 10374 10377 10380 10380 10380 10383 10385 10386 10386 10385 10384 10382 10381 10379 10378 10378 10380 10382 10382 10380
10336 10331 10335 10336 10327 10331 10347 10347 10339 10334 10325 10320 10329 10342 10346 10342 10337 10334 10329 10325 10322 10318 10319 10321 10316 10311 10309 10307 10307 10307 10305 10308 10311 10313 10315 10316 10319 10324 10328 10332 10335 10338 10339 10338 10336 10337 10338 10339 10339 10339 10339 10339 10338 10339 10340 10340 10341 10342 10345 10348 10350 10350 10348 10347 10351 10354 10357 10359 10361 10362 10364 10366 10368 10369 10370 10369 10367 10366 10364 10363 10363 10364 10365 10366 10366 10364
10320 10312 10312 10312 10303 10310 10330 10332 10321 10310 10301 10308 10327 10333 10326 10319 10315 10315 10315 10310 10306 10303 10300 10299 10297 10296 10296 10294 10292 10291 10290 10289 10290 10293 10296 10297 10300 10304 10308 10313 10316 10318 10321 10322 10322 10323 10322 10323 10324 10324 10325 10325 10324 10325 10326 10326 10328 10329 10329 10330 10333 10334 10333 10331 10331 10333 10338 10343 10344 10346 10349 10350 10351 10353 10353 10351 10350 10349 10348 10347 10348 10349 10349 10348 10348 10347
10305 10298 10293 10291 10281 10286 10309 10314 10298 10285 10287 10307 10321 10312 10299 10297 10297 10298 10299 10295 10292 10290 10284 10277 10276 10277 10277 10276 10276 10277 10278 10276 10275 10276 10277 10277 10280 10284 10287 10292 10296 10299 10302 10304 10306 10308 10308 10308 10309 10309 10309 10310 10310 10310 10311 10312 10314 10317 10317 10315 10316 10317 10317 10315 10314 10315 10319 10323 10325 10329 10333 10335 10337 10338 10338 10336 10334 10332 10332 10331 10331 10331 10331 10332 10331 10329
10286 10282 10277 10274 10266 10265 10282 10288 10273 10272 10289 10298 10292 10285 10284 10284 10282 10281 10281 10279 10277 10273 10267 10261 10259 10259 10259 10260 10260 10260 10261 10263 10262 10263 10263 10261 10261 10264 10267 10269 10273 10276 10280 10284 10289 10291 10292 10293 10294 10295 10294 10294 10294 10295 10296 10297 10299 10302 10303 10301 10300 10301 10301 10300 10300 10301 10304 10307 10308 10309 10312 10316 10320 10323 10323 10322 10319 10317 10315 10315 10315 10315 10315 10316 10316 10314
10264 10263 10259 10257 10252 10249 10257 10262 10255 10262 10278 10276 10266 10269 10273 10268 10266 10266 10261 10259 10258 10254 10250 10247 10245 10244 10244 10243 10243 10243 10244 10246 10248 10248 10249 10248 10246 10247 10250 10251 10252 10254 10257 10263 10269 10273 10275 10276 10278 10278 10278 10278 10277 10277 10278 10280 10282 10285 10286 10284 10283 10284 10284 10284 10284 10286 10289 10292 10293 10293 10294 10298 10302 10305 10307 10305 10303 10300 10299 10299 10299 10299 10299 10300 10300 10299
10245 10243 10239 10235 10236 10236 10237 10240 10241 10246 10253 10251 10251 10256 10255 10251 10252 10249 10240 10236 10237 10234 10232 10231 10228 10228 10228 10227 10228 10229 10229 10230 10232 10230 10229 10230 10231 10232 10234 10235 10236 10236 10238 10241 10245 10250 10254 10258 10261 10262 10262 10262 10261 10260 10261 10263 10265 10267 10269 10268 10266 10266 10267 10268 10268 10269 10272 10276 10277 10278 10279 10282 10285 10288 10288 10288 10286 10284 10283 10283 10284 10284 10284 10284 10284 10283
10231 10226 10221 10215 10216 10220 10219 10218 10223 10226 10229 10233 10238 10239 10237 10234 10234 10228 10218 10214 10216 10214 10212 10212 10211 10210 10211 10212 10213 10214 10214 10213 10215 10215 10212 10211 10213 10215 10216 10218 10219 10220 10223 10224 10225 10228 10231 10236 10241 10244 10245 10246 10246 10244 10245 10247 10249 10250 10251 10251 10250 10249 10249 10250 10250 10252 10255 10258 10261 10263 10264 10267 10270 10271 10270 10270 10269 10266 10266 10266 10268 10270 10270 10269 10269 10268
10218 10212 10207 10198 10197 10203 10200 10196 10201 10207 10211 10217 10222 10223 10221 10216 10213 10206 10194 10191 10198 10198 10192 10191 10192 10191 10192 10196 10198 10198 10197 10195 10197 10201 10198 10194 10196 10198 10198 10201 10203 10203 10205 10208 10209 10211 10213 10215 10218 10223 10226 10227 10228 10228 10228 10231 10233 10233 10233 10233 10233 10234 10233 10232 10232 10234 10237 10240 10243 10246 10248 10250 10253 10254 10253 10252 10250 10249 10249 10250 10252 10254 10255 10254 10253 10253
10204 10200 10194 10184 10180 10183 10180 10176 10181 10189 10196 10201 10203 10204 10203 10198 10192 10185 10174 10174 10182 10180 10171 10168 10170 10170 10171 10175 10179 10183 10182 10179 10181 10186 10184 10179 10180 10182 10181 10183 10186 10187 10187 10190 10192 10195 10197 10199 10199 10201 10204 10205 10208 10210 10212 10214 10216 10216 10216 10216 10216 10217 10217 10216 10216 10218 10220 10223 10226 10228 10230 10232 10234 10236 10235 10234 10233 10232 10232 10233 10235 10237 10239 10239 10238 10238
10190 10186 10179 10171 10167 10166 10161 10158 10161 10170 10182 10186 10183 10182 10180 10174 10170 10166 10160 10160 10164 10160 10154 10150 10148 10148 10150 10152 10156 10162 10165 10164 10165 10170 10172 10168 10164 10165 10165 10165 10167 10168 10169 10171 10173 10176 10179 10183 10183 10183 10184 10183 10184 10188 10191 10194 10198 10199 10198 10199 10199 10200 10200 10200 10200 10202 10203 10205 10208 10210 10212 10214 10216 10217 10217 10217 10216 10216 10216 10217 10219 10220 10222 10222 10222 10223
10178 10172 10165 10161 10156 10150 10146 10143 10144 10154 10167 10166 10157 10157 10156 10150 10149 10153 10149 10145 10144 10142 10138 10134 10130 10131 10131 10130 10133 10137 10141 10145 10148 10152 10157 10156 10151 10149 10149 10148 10148 10150 10151 10151 10153 10155 10158 10163 10166 10165 10164 10163 10162 10164 10167 10170 10175 10178 10179 10180 10180 10181 10182 10183 10183 10186 10187 10188 10189 10192 10194 10196 10198 10199 10200 10200 10200 10201 10201 10202 10203 10204 10205 10205 10206 10207
10165 10158 10154 10151 10144 10137 10136 10135 10134 10140 10148 10141 10129 10132 10134 10127 10128 10135 10133 10129 10127 10124 10119 10117 10117 10117 10115 10114 10115 10115 10118 10123 10128 10131 10136 10139 10138 10135 10133 10131 10131 10132 10133 10133 10133 10133 10136 10141 10145 10145 10145 10143 10141 10141 10143 10145 10150 10155 10157 10158 10159 10160 10163 10165 10166 10169 10172 10173 10174 10175 10177 10179 10181 10183 10183 10183 10184 10185 10186 10186 10186 10187 10188 10189 10190 10192
10150 10143 10137 10136 10135 10129 10126 10129 10129 10126 10124 10121 10114 10112 10114 10110 10108 10108 10107 10109 10110 10105 10101 10102 10105 10104 10101 10099 10099 10100 10101 10104 10107 10111 10114 10118 10120 10119 10116 10114 10112 10112 10113 10114 10113 10113 10114 10118 10123 10125 10125 10124 10121 10119 10120 10121 10126 10134 10136 10135 10135 10139 10144 10148 10150 10153 10157 10158 10159 10160 10162 10164 10165 10166 10167 10166 10166 10168 10169 10170 10171 10171 10171 10173 10175 10176
10134 10128 10117 10117 10125 10121 10112 10118 10123 10109 10100 10105 10105 10097 10095 10097 10096 10088 10083 10088 10091 10087 10085 10086 10089 10090 10087 10083 10084 10086 10088 10088 10088 10091 10093 10097 10101 10101 10098 10096 10095 10092 10093 10094 10094 10094 10094 10096 10101 10104 10105 10106 10103 10100 10100 10101 10104 10112 10117 10114 10113 10118 10124 10128 10132 10136 10139 10141 10142 10144 10146 10148 10149 10150 10150 10149 10149 10151 10153 10155 10156 10156 10156 10156 10157 10159
10119 10112 10097 10099 10111 10105 10096 10103 10105 10090 10085 10092 10091 10084 10081 10081 10080 10074 10069 10071 10074 10073 10070 10069 10070 10072 10071 10068 10068 10069 10071 10073 10072 10072 10074 10077 10080 10082 10080 10078 10078 10075 10074 10074 10074 10074 10075 10077 10081 10082 10085 10089 10087 10083 10083 10085 10085 10089 10095 10095 10092 10096 10102 10107 10111 10114 10117 10120 10122 10124 10127 10129 10131 10133 10133 10133 10134 10135 10137 10139 10142 10142 10142 10142 10142 10142
10104 10093 10082 10086 10090 10082 10080 10090 10083 10068 10069 10075 10071 10070 10068 10063 10061 10061 10059 10059 10061 10059 10057 10053 10052 10054 10054 10053 10051 10050 10053 10055 10054 10054 10057 10058 10059 10061 10061 10060 10060 10059 10058 10056 10055 10055 10057 10060 10062 10063 10064 10068 10069 10065 10064 10069 10070 10069 10072 10074 10073 10075 10080 10085 10089 10093 10095 10098 10100 10103 10107 10110 10113 10115 10116 10117 10118 10120 10122 10124 10126 10127 10128 10128 10127 10126
10085 10078 10075 10073 10065 10057 10065 10076 10065 10049 10050 10056 10055 10055 10052 10046 10045 10046 10044 10044 10044 10042 10042 10041 10039 10038 10038 10037 10034 10033 10035 10038 10036 10035 10038 10040 10040 10041 10041 10042 10043 10043 10042 10041 10039 10038 10039 10041 10044 10046 10046 10048 10049 10045 10045 10050 10054 10052 10052 10054 10055 10056 10061 10066 10070 10073 10076 10079 10081 10084 10088 10091 10094 10097 10098 10099 10102 10104 10106 10109 10110 10112 10113 10112 10110 10111
10063 10064 10066 10054 10042 10045 10055 10055 10044 10033 10035 10042 10042 10037 10032 10029 10030 10030 10028 10027 10026 10025 10027 10027 10025 10024 10023 10021 10019 10018 10019 10022 10021 10016 10017 10021 10023 10023 10023 10024 10024 10024 10025 10025 10024 10023 10023 10023 10025 10027 10029 10032 10032 10028 10028 10032 10034 10033 10033 10035 10037 10038 10041 10046 10051 10055 10060 10062 10064 10066 10069 10071 10074 10077 10079 10081 10084 10087 10089 10092 10094 10097 10098 10097 10095 10096
10045 10047 10047 10031 10027 10040 10045 10035 10026 10020 10023 10030 10027 10017 10012 10013 10012 10011 10011 10010 10010 10011 10013 10013 10011 10009 10006 10004 10004 10003 10003 10006 10006 10001 9999 10003 10006 10006 10006 10005 10005 10007 10008 10007 10007 10007 10007 10008 10009 10010 10013 10015 10014 10014 10016 10017 10016 10013 10012 10014 10020 10023 10025 10028 10032 10037 10043 10047 10048 10049 10050 10051 10054 10058 10060 10063 10066 10069 10072 10074 10077 10080 10081 10081 10081 10082
10033 10030 10025 10014 10014 10025 10028 10023 10016 10009 10008 10013 10010 10001 9998 9999 9997 9996 9995 9993 9993 9995 9996 9997 9996 9994 9991 9989 9986 9985 9986 9989 9991 9988 9986 9987 9989 9989 9989 9988 9987 9990 9991 9989 9989 9990 9990 9991 9993 9995 9998 9999 9997 9998 10001 10004 10004 9999 9993 9993 10000 10004 10007 10011 10016 10021 10027 10030 10030 10031 10032 10033 10037 10041 10042 10045 10048 10051 10054 10057 10059 10061 10064 10064 10065 10066